Location: PACMO
(41.3967°N, 90.3760°W)
Time: 03:25:38
(UTC-05:00)

NOAA 19 - Visible Passes

Search period start: 26 July 2016 00:00
Search period end: 05 August 2016 00:00
Orbit: 841 x 863 km, 99.0° (Epoch: 25 July)

Date Brightness Start Highest point End Pass type
(mag) Time Alt. Az. Time Alt. Az. Time Alt. Az.
26 Jul 5.8 03:46:34 10° NNE 03:51:56 54° E 03:56:03 17° S visible
27 Jul 6.1 03:35:19 10° NNE 03:40:30 43° E 03:44:28 17° SSE visible
27 Jul 6.4 05:16:29 10° N 05:20:57 26° WNW 05:25:25 10° WSW visible
28 Jul 6.5 03:24:06 10° NNE 03:29:03 34° E 03:32:53 15° SSE visible
28 Jul 6.1 05:04:51 10° N 05:09:40 33° WNW 05:14:29 10° SW visible
29 Jul 6.8 03:12:59 10° NE 03:17:34 27° E 03:21:16 14° SE visible
29 Jul 5.8 04:53:17 10° N 04:58:22 41° WNW 05:03:19 11° SW visible
30 Jul 7.2 03:01:58 10° NE 03:06:05 21° E 03:09:41 12° SE visible
30 Jul 5.5 04:41:45 10° N 04:47:02 51° WNW 04:51:42 13° SW visible
31 Jul 7.4 02:51:07 10° NE 02:54:33 17° E 02:58:00 10° SE visible
31 Jul 5.3 04:30:16 10° N 04:35:41 64° WNW 04:40:07 16° SSW visible
01 Aug 7.6 02:40:35 10° ENE 02:43:01 13° E 02:45:27 10° ESE visible
01 Aug 5.2 04:18:50 10° NNE 04:24:19 80° WNW 04:28:31 18° SSW visible
02 Aug 5.2 04:07:26 10° NNE 04:12:56 82° ESE 04:16:56 19° S visible
03 Aug 5.5 03:56:05 10° NNE 04:01:32 65° ESE 04:05:20 20° S visible
04 Aug 5.8 03:44:46 10° NNE 03:50:07 51° E 03:53:44 20° S visible
04 Aug 6.6 05:26:16 10° NNW 05:30:26 23° WNW 05:34:36 10° WSW visible
